CZ-2D DEB, 44603

Orbit data source: Space-Track

CZ-2D DEB, 44603 is space debris in SSO originally from a launch on Fri, 11 Nov 2016 UTC launched from the Jiuquan Satellite Launch Center, China (JSC). Debris objects in space refer to the collection of defunct objects orbiting the Earth. Examples of debris include non-operational satellites, rocket bodies, and fragments generated from explosions, collisions, or faulty payload assembly.

Loading next visibility...
CZ-2D DEB details
Identifier
44603, 2016-068C
Orbit
SSO
Last TLE update2 days ago
Origin
Flag of CNCASC (CN / PRC)
ManufacturerUnknown
MissionSpacecraft
Bus & MotorUnknown
MassUnknown
Launch date (UTC)
2016-11-11 (8 years ago)
Launch vehicleUnknown
Launch site
Jiuquan Satellite Launch Center, China (JSC)
Object type
Payload
Rocket body
Debris
Shape & HBRUnknown
Radar Cross SectionSmall (<0.1 m²)

Expand to show TLE details & history

TLE from 2 days ago
0 CZ-2D DEB
1 44603U 16068C   24359.80766598  .00001449  00000-0  93943-3 0  9999
2 44603  98.5357 191.8221 0215989 292.1287  65.7075 13.93412246898982
Epoch: 2024-12-24T19:23Z
Definitive object data (Epoch: 2024-12-24T19:23:02.34Z)
Latitude-0.00009°
Longitude167.2519°
Altitude857.616 km
Speed7.455 km/s
True Right ascension12h 47m 17s
True Declination0° 00' 00"
Sunlit
Object was in daylight at TLE epoch
Visualization TLE readout
Latitude-35.8669°
Longitude174.96737°
Altitude802.134 km
Speed7.517 km/s
Apparent Right ascension16h 59m 44s
Apparent Declination-62° 25' 02"
Sunlit
Object is in daylight
Visualization observer readout
Local Sidereal Time10:12:20
Azimuth143.784° SSE
Elevation-39.915°
Doppler factor1
Orbital elements
Apogee altitude1,071.381 km
Perigee altitude756.382 km
Semi-major axis7,292.018 km
Eccentricity0.0215989
Inclination98.5357°
RAAN191.8221°
Arg. of periapsis292.1287°
True anomaly67.98813°
Mean anomaly65.7075°
Eccentric anomaly66.84534°
Mean motion3.48555 °/min
BSTAR0.00093943
Orbital period103.28 mins
Loading maneuver chart data...
Loading historical data...
Loading historical data...
Loading historical data...
Loading historical data...
Loading historical data...
Loading historical data...
Loading historical data...

CZ-2D DEB Visibility forecast

Observer location: undefined°, undefined

Span
Click to sort rows by Start time (UTC) header in descending order
Start Az.
Max El. time (UTC)
Max El. Az.
Max El.
End time (UTC)
End Az.
5 mins2024-12-26 11:13:05.658Z78.662° E2024-12-26 11:15:05.658Z58.815° ENE12.927°2024-12-26 11:18:05.658Z29.87° NE
10 mins2024-12-26 12:52:05.658Z159.078° S2024-12-26 12:56:05.658Z106.727° ESE44.414°2024-12-26 13:02:05.658Z349.285° N
5 mins2024-12-26 14:37:05.658Z250.46° W2024-12-26 14:39:05.658Z271.874° WNW14.134°2024-12-26 14:42:05.658Z302.003° NW
10 mins2024-12-27 01:25:05.658Z27.909° NE2024-12-27 01:30:05.658Z105.445° ESE38.568°2024-12-27 01:35:05.658Z172.413° S
8 mins2024-12-27 03:08:05.658Z338.526° N2024-12-27 03:11:05.658Z303.035° NW24.54°2024-12-27 03:16:05.658Z245.555° WSW
|